RH
8 8 7 6 5 5 5 4 4 4 3 3 2 3 3 3 4 4 4 4 4 4 4 4 4 4 4 4 4 4 4 3 3 3 2 2 4 5 8 14 21 27 31 32 33 36 40 47 56 62 66 67 65 68 68 65 65 65 63 61 63 66 66 63 64 71 74 78 89 91 92 97 97 98 95 86 78 74 69 62 57 56 53 46 40 36 32 32
9 9 9 8 8 7 6 6 5 5 4 4 3 3 3 3 3 3 3 3 4 4 3 4 4 4 4 4 4 4 4 4 4 3 3 2 2 4 5 7 11 17 25 30 32 34 36 39 47 54 57 58 58 64 67 66 65 64 63 63 64 64 65 63 60 67 71 72 83 88 91 96 97 98 96 88 80 75 69 63 61 61 56 49 43 37 33 32
7 7 8 8 8 8 8 7 6 6 5 5 5 4 3 3 3 3 3 3 3 4 4 4 4 4 4 4 4 4 4 4 4 4 3 3 2 2 3 4 6 9 15 22 27 30 31 31 36 43 46 49 51 58 64 65 64 64 63 62 63 61 61 60 58 66 72 72 78 81 88 97 96 97 96 88 80 73 64 60 60 59 56 50 44 39 35 34
7 7 7 7 7 7 7 7 7 7 7 6 5 5 5 4 4 3 3 3 3 3 3 4 4 4 4 4 4 4 4 4 4 5 4 4 4 3 2 3 4 5 7 12 18 24 28 31 34 36 40 44 49 56 63 63 61 62 62 62 62 61 58 58 59 66 70 70 73 74 85 98 95 95 94 85 79 72 64 60 55 52 52 50 46 41 38 38
7 6 6 6 6 6 6 6 6 7 7 7 7 6 5 5 5 4 4 3 3 3 3 3 4 3 4 3 4 4 4 4 4 4 4 4 4 4 3 2 2 3 4 6 9 14 20 29 34 37 38 41 48 56 61 62 61 61 61 62 62 60 56 56 56 63 70 68 71 74 83 96 96 94 89 81 76 69 67 63 56 51 49 48 46 43 40 40
6 6 5 5 5 5 5 6 6 6 6 7 7 7 7 6 6 5 5 5 4 4 3 3 3 3 4 3 4 4 4 4 4 4 4 4 4 4 4 3 3 2 3 3 5 7 11 18 25 32 36 38 45 50 54 57 60 59 59 60 60 56 52 51 49 56 67 68 72 74 79 92 97 98 89 82 76 67 66 63 57 54 49 48 46 42 41 41
5 5 5 4 4 4 4 5 5 5 5 6 6 6 7 7 7 6 6 6 6 5 4 4 3 3 3 3 4 3 4 4 4 4 4 4 4 5 4 4 4 3 3 2 3 4 6 9 15 22 28 35 40 43 46 50 53 55 56 55 52 49 45 46 47 54 65 69 74 73 80 90 94 99 90 84 82 71 68 66 62 59 51 50 48 42 41 41
5 5 4 4 4 4 4 4 4 4 4 5 5 5 6 7 8 8 7 6 6 6 6 5 4 4 3 3 4 3 4 4 4 4 4 4 4 4 5 5 5 4 3 3 3 3 3 5 8 12 18 27 34 37 40 41 43 44 44 43 42 39 36 37 42 52 62 70 74 70 79 87 87 97 91 86 87 77 75 72 67 64 54 49 48 44 42 42
5 5 4 4 4 4 3 3 3 3 3 3 4 5 5 6 7 8 8 7 7 7 8 8 7 6 4 4 4 3 4 3 4 4 4 4 4 5 4 5 5 5 4 3 3 2 3 3 4 6 10 17 22 27 31 32 32 30 29 30 30 30 28 29 35 44 52 63 70 64 72 84 82 91 93 90 90 83 82 75 66 64 56 51 48 44 42 41
5 5 4 4 4 4 4 3 3 3 3 3 3 3 4 5 6 8 9 9 8 7 8 8 8 8 7 5 5 4 4 4 4 3 4 4 4 4 4 5 5 5 5 5 4 3 3 3 3 3 5 9 12 16 21 24 24 22 23 23 24 27 26 28 31 37 44 56 68 62 66 81 80 86 92 91 89 81 76 70 64 60 54 50 47 46 45 41
6 5 5 5 4 4 4 3 3 3 3 3 3 3 3 4 5 7 9 11 11 9 8 9 9 9 9 8 7 6 5 4 4 4 4 4 4 4 4 4 5 5 6 6 6 4 3 3 2 3 3 4 6 8 13 17 17 17 20 22 23 25 27 30 30 32 36 47 60 58 61 75 77 84 90 88 84 76 72 68 62 57 52 48 45 46 47 44
6 6 5 5 5 4 4 4 3 3 3 3 3 3 3 3 5 7 8 11 13 11 9 9 10 10 10 9 9 8 7 5 5 4 4 4 4 4 4 4 5 5 6 7 7 5 4 4 3 3 3 3 3 4 6 9 11 13 17 18 18 21 26 30 29 30 32 38 48 49 57 71 73 77 85 86 84 80 79 74 63 57 53 48 46 47 48 48
6 5 5 5 5 4 4 4 4 3 3 3 3 3 3 3 4 6 8 11 14 15 12 10 11 11 10 10 10 9 9 8 7 6 5 5 4 4 4 4 4 5 6 7 7 6 6 5 4 3 3 3 3 3 3 5 7 9 12 13 14 19 28 31 28 32 37 38 42 43 54 69 70 68 72 80 86 85 80 73 67 62 55 51 50 49 50 50
5 4 4 4 4 4 3 4 4 4 4 3 3 3 3 3 4 6 8 12 15 17 17 13 12 13 12 11 11 10 10 9 9 7 6 6 5 4 4 4 4 4 5 6 6 6 7 6 5 4 3 3 3 3 3 3 4 5 8 10 11 15 29 34 30 38 43 40 41 39 46 63 68 66 65 70 78 83 80 73 70 65 58 55 55 52 51 51
4 4 3 3 3 3 3 3 3 4 4 4 3 3 3 2 4 6 9 13 17 19 21 19 15 15 14 12 11 11 11 10 10 9 8 7 6 6 5 4 4 4 5 5 5 6 6 7 7 6 6 4 4 3 3 3 3 3 4 7 7 12 27 34 33 40 43 40 41 36 37 51 59 62 64 62 65 72 73 71 69 67 63 60 59 56 54 53
4 3 3 2 2 2 2 2 3 4 4 4 4 4 4 4 4 6 9 15 18 21 25 25 20 17 17 16 14 12 11 11 10 10 10 8 7 7 6 5 4 4 4 4 5 5 5 7 8 9 8 6 5 4 4 3 3 3 3 5 5 10 23 32 37 39 37 40 44 39 38 43 49 54 56 55 57 61 62 66 71 69 66 65 63 60 58 58
3 3 3 2 2 2 2 2 2 3 4 4 5 4 4 5 5 5 8 14 19 25 30 30 26 22 20 18 16 14 12 12 11 10 10 9 8 7 7 7 6 5 4 4 4 4 5 6 8 10 10 10 8 6 5 3 4 4 3 4 6 10 19 29 38 37 34 42 48 47 46 45 47 49 51 54 58 59 57 64 75 73 69 68 65 62 62 61
3 2 2 2 2 2 2 2 2 2 3 5 6 5 6 7 7 6 8 13 20 27 32 33 31 28 24 20 19 18 15 12 12 11 11 10 9 8 8 8 7 6 5 4 4 4 4 5 6 8 10 11 10 8 6 5 5 4 3 3 5 10 15 23 34 34 32 38 45 52 53 49 51 53 56 62 63 63 61 63 74 75 74 73 68 64 64 63
2 2 2 2 2 2 2 2 2 2 3 6 7 7 9 11 10 8 8 14 22 28 34 36 35 34 30 24 23 23 20 16 13 13 12 12 10 9 8 8 8 7 6 6 5 5 4 5 5 6 8 10 11 10 9 8 6 4 4 3 3 7 8 11 22 31 30 30 40 57 59 53 56 56 57 61 66 72 72 68 72 75 79 81 74 68 66 64
2 2 2 2 2 2 2 2 2 2 3 6 10 11 15 20 19 15 11 13 22 29 35 39 40 40 36 31 29 27 26 22 17 15 14 13 12 10 9 9 8 7 7 7 7 6 5 5 4 5 7 9 11 14 13 11 7 5 4 3 3 4 5 6 13 24 29 31 42 56 57 52 53 55 54 58 68 78 79 76 77 80 84 82 75 68 63 61
2 2 2 2 2 2 3 2 2 3 4 11 19 22 24 27 28 26 18 12 18 28 37 42 44 44 41 37 36 33 31 28 23 19 16 15 14 12 11 9 9 8 8 8 7 8 6 5 5 5 6 7 10 15 16 12 9 8 5 4 3 3 8 10 11 19 24 32 47 52 50 49 49 51 52 54 65 77 85 86 84 82 81 78 72 64 58 62
2 3 3 3 3 3 3 3 3 4 9 19 31 37 36 33 32 32 25 15 14 24 38 46 46 47 46 44 42 37 33 32 29 25 20 18 16 14 13 11 10 9 9 9 8 7 7 6 7 6 6 5 7 13 16 14 11 9 7 5 4 3 8 11 13 19 19 24 37 43 47 49 46 49 53 57 67 80 89 90 83 76 72 72 68 59 55 61
3 3 3 3 3 3 3 3 3 8 17 27 38 45 43 39 37 34 29 20 14 20 36 49 51 50 50 49 46 40 36 33 31 29 25 21 19 16 14 13 12 10 9 9 8 8 7 7 8 8 7 5 6 10 14 14 11 11 9 7 5 4 5 11 17 18 14 15 24 33 43 45 38 39 46 53 61 72 82 84 80 72 65 63 60 54 51 55
3 3 4 4 3 4 4 4 6 14 24 28 35 45 44 42 40 36 31 22 17 20 31 46 52 51 50 50 49 45 41 36 32 30 29 26 22 19 17 15 13 12 11 10 9 9 8 8 9 8 8 7 5 7 11 12 12 13 12 8 7 6 6 12 18 15 10 9 14 23 32 34 29 29 37 42 45 57 72 76 75 70 61 56 55 50 45 56
4 4 5 4 4 4 4 5 10 19 25 24 30 41 43 42 42 40 35 25 22 24 28 39 49 51 50 50 50 48 45 41 36 33 31 29 26 23 20 18 15 14 12 12 10 10 9 9 8 8 8 8 7 6 7 10 11 14 15 11 10 10 10 14 18 18 16 13 11 15 21 24 26 28 30 33 40 55 66 67 65 63 61 57 56 51 45 59
5 5 6 5 4 5 4 6 12 19 23 22 26 33 34 38 43 43 38 32 30 29 27 33 43 48 50 49 49 49 47 44 40 36 34 31 29 27 24 21 19 17 14 13 11 11 10 9 9 8 8 8 8 7 6 7 8 11 15 15 15 17 17 17 19 23 26 25 18 13 17 21 24 27 25 24 36 51 57 59 58 55 59 63 62 57 52 58
6 6 7 6 5 5 6 8 13 18 19 18 21 24 23 28 36 39 36 32 33 31 28 31 33 37 43 45 46 47 45 44 42 40 37 35 32 30 27 25 22 19 16 14 12 12 11 10 9 9 8 8 8 8 7 7 5 9 16 19 17 21 24 20 20 25 29 32 28 20 19 21 22 25 25 25 32 40 44 49 50 49 57 68 69 65 59 58
7 7 8 8 7 6 7 10 12 14 14 14 16 17 17 19 23 30 28 24 30 32 27 28 28 29 33 38 42 43 42 41 41 40 39 37 34 32 29 27 25 22 19 16 14 13 12 11 10 9 9 8 8 8 8 8 6 8 17 21 18 21 27 24 23 30 33 35 38 32 23 19 19 23 25 23 24 30 36 39 41 45 59 73 71 61 58 59
7 8 7 10 10 8 9 11 11 11 10 11 13 12 14 14 15 23 22 22 36 40 30 28 29 25 25 29 33 36 38 37 37 38 39 37 35 33 31 28 26 24 21 19 17 16 13 12 11 9 9 8 8 8 8 8 8 9 13 19 20 21 26 27 29 36 40 39 40 39 32 22 18 21 20 15 16 23 28 31 37 50 67 73 54 38 44 54
8 8 6 14 19 12 10 12 10 10 9 9 11 10 12 12 13 19 20 28 48 51 40 38 36 30 24 23 25 28 31 33 34 35 36 36 35 34 32 30 28 25 23 22 20 17 16 14 13 11 10 9 8 8 8 7 9 10 10 14 20 22 23 28 33 38 43 43 42 43 41 29 18 17 13 10 17 23 22 23 34 59 76 65 35 22 34 50
9 7 7 24 31 16 9 12 9 9 10 9 9 9 9 11 14 17 24 42 62 61 51 46 42 39 33 25 23 24 24 26 30 31 32 33 34 34 33 31 29 27 25 24 22 20 18 16 15 13 11 10 9 7 8 7 7 10 10 10 16 21 23 26 32 35 40 46 46 44 45 35 22 17 13 11 17 17 17 20 29 55 77 64 39 26 31 47
8 7 16 38 43 23 10 11 10 9 10 8 9 10 8 9 15 25 40 60 73 67 57 50 45 43 40 34 27 23 22 23 24 27 29 30 31 32 32 31 29 29 26 25 24 21 20 18 17 16 13 11 10 9 8 7 7 8 9 9 12 16 20 23 26 29 35 44 47 45 47 42 31 24 21 20 19 14 15 19 21 39 65 70 57 35 26 38
6 14 32 44 44 30 14 9 10 9 9 9 9 8 9 11 19 31 49 67 75 72 67 60 53 48 43 41 37 29 25 24 23 24 25 27 28 28 30 30 29 28 27 26 25 22 21 20 19 18 16 13 12 11 10 8 8 7 7 9 9 11 14 17 19 21 29 41 46 45 46 47 41 32 27 27 27 23 20 18 18 26 40 53 52 31 17 26
7 26 42 38 36 35 20 8 9 10 7 9 10 8 12 25 31 32 44 65 78 80 78 72 64 58 51 46 46 40 34 30 26 24 23 23 25 25 26 27 27 28 27 25 24 24 22 21 22 20 17 16 14 13 12 10 9 8 7 8 9 9 9 10 12 13 19 34 46 47 44 46 47 34 21 20 22 22 20 17 19 20 19 21 23 15 9 18
17 39 42 31 33 38 28 13 7 9 8 8 10 8 12 30 41 35 38 65 85 83 80 79 73 66 60 55 53 47 40 36 30 26 25 24 23 23 23 23 24 25 25 23 23 24 21 21 24 22 17 17 17 16 14 12 12 10 8 8 9 10 9 8 10 11 13 25 39 47 45 46 47 34 17 15 18 16 13 13 16 17 14 10 8 8 10 21
30 46 40 30 30 35 38 29 13 7 9 10 12 12 13 25 41 44 42 62 87 87 80 82 80 70 62 59 56 49 42 38 33 27 26 24 23 23 22 21 21 22 22 21 21 22 21 22 25 23 19 18 18 18 17 15 16 14 10 10 10 10 10 9 10 10 10 16 26 34 39 43 44 35 21 16 17 15 12 11 11 12 12 8 7 7 7 18
36 47 42 34 29 31 39 42 32 20 15 14 12 11 13 19 30 43 51 58 71 79 80 84 81 70 61 56 53 49 43 40 36 31 26 23 22 21 21 21 20 19 20 19 19 20 21 24 29 27 23 21 20 21 23 21 21 19 13 11 10 10 11 11 10 10 9 11 18 22 27 35 38 35 28 21 17 16 14 13 11 11 11 7 7 8 5 11
38 47 46 38 35 39 42 44 44 39 32 30 26 18 18 24 24 30 51 62 62 69 80 85 80 69 62 57 50 45 40 37 34 32 29 26 23 20 19 19 19 19 18 17 18 18 19 27 35 33 29 29 24 24 34 34 26 21 18 16 13 12 12 12 11 11 10 10 14 17 20 27 31 30 30 29 25 18 13 10 10 11 12 8 7 8 7 9
46 52 52 44 40 45 47 45 47 51 51 49 46 39 36 42 40 34 49 66 66 69 79 84 81 72 64 59 54 46 40 35 32 29 27 27 26 23 20 18 17 17 17 17 18 17 18 26 40 42 39 41 38 37 50 51 33 25 28 27 22 16 14 15 15 14 13 13 13 14 16 20 23 25 28 30 27 20 11 7 7 9 9 8 9 9 8 9
49 54 55 51 45 41 41 43 48 57 64 62 64 66 62 61 61 54 56 66 72 79 85 81 74 66 60 55 52 47 41 35 32 28 26 24 23 24 23 20 17 16 16 17 17 18 17 21 40 48 44 52 62 61 63 59 43 33 34 34 30 25 20 17 17 17 15 15 14 14 14 14 15 16 19 20 18 15 10 6 5 6 9 14 16 15 13 11
48 52 53 53 52 46 40 36 35 41 48 53 64 75 77 75 75 70 64 64 70 80 87 82 69 62 60 56 53 50 42 36 32 28 26 25 22 23 23 22 20 17 17 16 16 20 20 19 35 45 43 55 74 74 64 56 48 39 35 34 32 31 29 22 19 19 17 16 16 15 12 11 11 11 12 12 11 13 14 13 13 13 20 29 27 24 24 19
45 49 50 52 54 53 49 43 37 32 28 31 39 47 52 56 61 66 68 69 69 71 79 83 77 70 67 62 58 55 48 43 40 34 28 25 23 23 22 21 21 19 18 18 17 23 26 26 37 47 48 54 64 66 59 50 44 38 34 31 29 31 31 26 23 22 19 20 20 17 12 10 9 10 13 14 15 22 27 28 31 30 32 39 33 27 33 30
47 49 50 54 54 52 52 49 45 41 34 28 27 28 29 30 34 43 55 61 62 61 66 77 83 81 78 73 65 56 48 45 45 40 36 33 29 27 26 23 23 23 22 21 21 25 29 33 47 58 57 53 53 53 50 44 38 36 33 28 28 32 30 24 24 24 23 23 21 18 16 13 9 10 20 25 24 32 40 38 40 38 36 42 36 28 33 34
41 44 45 48 47 45 46 46 44 42 38 34 31 28 26 24 23 26 31 37 40 41 44 55 71 79 78 74 66 55 46 44 45 43 41 40 38 35 34 33 33 33 31 29 28 30 31 33 51 69 67 58 55 52 45 41 38 37 35 30 29 34 33 28 29 29 27 26 22 19 18 16 11 11 25 37 36 38 43 40 39 38 39 45 39 28 29 33
22 24 24 27 25 26 30 33 36 36 34 33 31 30 29 27 26 24 23 24 26 28 29 35 48 56 54 50 45 41 38 40 45 46 41 39 38 35 35 36 37 38 37 34 32 32 31 30 43 69 78 68 63 62 53 45 42 40 39 35 32 36 38 36 38 36 31 29 27 25 23 20 14 11 21 35 40 43 45 41 38 39 44 52 46 32 29 35
13 12 12 12 11 11 12 15 19 20 21 22 21 23 25 26 27 27 26 24 22 24 25 25 30 35 35 32 29 28 28 29 34 38 36 33 30 28 27 27 29 31 30 29 27 25 27 26 30 54 78 77 68 69 65 56 48 43 42 41 39 40 41 39 41 42 36 34 34 30 27 23 18 13 16 23 32 44 50 46 42 42 49 57 53 39 30 36
14 14 14 13 11 11 10 9 9 9 10 12 11 13 15 16 18 21 23 24 23 23 23 21 22 25 27 28 26 24 23 22 23 25 26 25 22 21 21 20 20 21 20 20 20 19 20 22 21 31 59 78 78 74 74 70 62 52 46 46 46 47 47 43 43 43 41 41 38 29 25 27 24 17 16 22 34 50 57 52 44 39 45 56 58 47 36 36
16 16 16 17 16 15 14 12 11 9 9 8 8 8 9 9 11 12 13 17 19 20 21 21 20 20 20 22 22 20 19 19 18 18 17 18 17 16 16 15 14 15 15 14 15 16 15 18 19 18 31 59 79 82 78 77 77 69 59 53 50 50 53 51 48 46 45 49 46 31 24 28 28 21 18 24 39 55 62 63 55 40 37 52 61 56 45 42
17 17 18 19 19 18 17 16 14 13 12 11 10 10 9 8 8 8 8 10 11 13 15 17 18 18 18 18 18 18 17 16 15 15 15 14 14 13 12 12 11 11 11 11 11 12 12 12 16 16 15 29 56 79 83 78 77 79 75 69 61 56 55 56 57 54 49 51 54 47 38 33 30 27 24 24 36 53 63 70 72 58 43 48 61 63 56 50
16 18 19 19 20 21 20 19 18 16 15 14 13 12 11 11 9 8 8 8 8 9 10 12 13 15 15 15 15 15 15 15 14 13 13 13 12 11 10 10 10 9 9 9 8 9 10 9 9 12 13 13 25 51 75 82 80 78 78 78 75 70 64 59 60 61 59 56 58 60 57 48 39 36 32 26 31 48 59 62 69 71 61 53 57 63 63 59
15 18 19 20 21 22 22 22 22 20 18 17 16 14 13 13 12 11 10 9 9 9 9 10 11 13 13 13 13 13 13 13 13 13 12 12 11 11 10 9 9 9 8 8 8 7 7 8 7 7 9 10 10 19 40 62 73 77 79 79 78 78 76 68 61 59 62 63 63 65 66 62 55 50 45 35 29 36 45 47 51 63 69 62 58 62 66 65
17 17 19 21 21 23 23 24 25 24 22 20 19 17 15 14 13 13 12 11 10 10 10 9 10 11 12 11 11 12 12 12 12 12 12 11 11 10 10 10 9 9 9 8 8 8 7 7 8 7 6 7 8 7 11 23 39 56 69 77 79 78 76 72 66 57 51 52 59 64 68 68 66 65 61 48 32 28 31 31 35 48 62 65 63 62 65 68
Wind_Speed
16 16 17 17 17 17 17 17 18 19 20 21 22 23 23 23 23 23 23 23 22 21 20 20 20 20 19 18 17 16 16 17 18 19 20 21 22 21 20 22 21 19 18 18 17 17 17 16 16 15 15 15 14 12 12 13 11 9 7 5 3 4 6 6 4 5 8 9 10 7 4 4 9 14 18 15 15 15 14 14 13 12 10 8 9 9 12 14
17 18 18 19 19 19 19 19 19 19 20 20 21 22 23 24 24 24 24 24 24 24 22 22 22 22 21 20 19 19 18 18 17 18 19 20 22 22 22 23 23 21 20 20 20 19 18 17 17 17 17 16 15 15 14 14 13 12 9 5 3 4 6 6 5 4 5 5 10 10 6 2 7 14 18 16 16 15 15 14 13 12 11 10 9 8 10 12
19 19 19 20 21 21 22 22 22 22 22 22 22 22 22 23 24 24 25 25 25 25 25 24 24 24 24 23 22 21 21 19 18 18 17 19 21 22 23 24 24 22 22 22 21 20 18 17 17 18 17 16 16 16 16 15 15 14 11 6 4 5 7 7 5 3 3 3 8 11 10 5 6 14 16 15 16 15 15 14 13 13 12 12 9 7 10 11
20 20 20 21 21 22 23 23 24 24 24 24 24 24 23 23 24 24 25 26 26 26 26 25 25 26 26 25 24 24 23 22 21 19 18 19 20 21 22 24 24 24 24 23 22 20 18 16 17 17 16 15 15 16 17 17 16 15 12 7 6 7 8 7 5 3 2 2 6 10 13 10 8 13 14 14 15 15 15 12 11 11 13 14 12 9 10 11
23 23 23 22 23 23 23 24 25 25 26 26 27 26 26 25 25 25 25 26 26 26 26 26 26 27 27 27 27 26 25 24 23 21 20 20 19 20 22 23 24 24 25 24 23 22 20 20 19 17 16 15 15 16 18 18 17 16 13 10 9 10 10 8 6 5 4 0 5 9 12 12 9 11 13 13 13 14 14 11 9 8 10 12 13 11 11 11
26 26 26 26 25 25 25 25 26 26 27 28 28 29 28 28 27 27 26 26 26 26 27 27 27 28 28 28 28 28 28 26 25 24 23 22 20 20 21 22 23 24 25 24 24 23 23 23 21 19 18 16 16 18 19 19 18 17 15 13 13 13 12 10 7 6 6 2 4 7 10 12 8 10 11 11 12 13 14 12 10 7 8 9 11 12 12 12
29 29 29 29 28 27 27 27 27 28 28 28 29 30 30 30 30 29 29 28 27 27 27 27 27 28 28 29 29 29 30 28 27 26 26 25 23 21 21 21 21 23 24 24 24 24 24 23 23 22 21 20 20 21 21 20 19 18 18 17 15 14 12 10 9 7 6 3 4 6 9 10 9 10 11 11 12 13 13 13 11 7 8 9 9 10 11 12
30 31 31 31 30 29 29 29 29 29 30 30 30 31 31 32 32 32 32 31 30 28 27 27 27 28 28 29 29 30 31 30 29 29 27 27 26 24 22 20 20 22 23 24 24 25 24 24 24 24 22 23 25 24 23 22 21 22 21 20 17 15 12 11 10 9 7 5 4 5 7 8 8 7 10 13 12 11 10 11 11 7 7 8 8 8 9 11
32 32 32 32 32 32 31 30 30 31 31 32 32 32 33 33 33 34 34 34 33 31 29 28 28 28 28 28 29 30 32 31 30 30 29 28 28 26 24 21 21 22 22 22 22 22 23 24 25 25 26 27 26 24 23 23 22 22 21 19 17 15 12 11 11 11 9 7 5 4 6 7 7 7 10 12 10 9 11 11 10 7 7 8 8 8 9 9
34 33 33 33 34 34 33 32 32 32 33 33 34 34 34 34 34 35 36 36 35 34 33 31 29 28 28 28 28 29 31 32 31 31 30 29 29 27 26 24 23 22 21 20 21 23 25 26 27 28 28 28 26 24 23 22 22 20 18 17 16 14 13 11 12 13 11 8 6 5 6 6 7 11 12 10 9 10 13 12 9 7 7 8 8 8 8 8
36 35 34 34 35 35 35 34 34 34 34 35 35 36 36 36 36 36 37 38 38 37 36 34 32 30 29 28 28 28 30 32 31 31 30 29 29 29 27 25 24 23 21 19 22 25 27 27 26 26 27 27 25 23 22 22 21 18 16 16 14 13 12 10 11 12 12 10 8 7 7 7 7 11 12 11 12 12 11 10 9 8 7 7 8 9 8 7
37 37 36 36 36 36 36 35 34 34 35 36 36 37 38 38 38 38 38 39 40 39 38 37 35 33 31 30 28 28 29 30 31 31 29 29 29 29 28 27 25 24 22 22 24 25 25 25 25 25 26 26 24 22 22 22 20 17 16 15 13 12 11 12 12 12 12 12 11 9 8 7 8 11 13 13 12 10 8 7 7 6 7 7 7 8 8 7
38 38 38 37 37 37 37 36 35 35 36 36 37 38 39 39 40 40 40 40 41 41 39 39 38 36 34 32 30 28 29 29 30 31 29 28 29 28 28 28 27 25 24 25 26 25 24 24 24 25 25 24 23 22 21 21 20 18 16 16 15 12 12 14 14 13 13 13 12 11 9 8 8 10 12 13 11 8 6 6 6 5 6 6 6 7 7 6
39 39 39 38 38 37 37 37 35 35 36 37 38 39 40 40 41 42 42 42 42 42 41 40 39 39 37 35 33 30 29 30 30 31 30 27 27 28 28 28 28 27 27 28 28 25 23 23 23 23 22 22 22 21 21 20 20 19 17 17 17 14 13 14 15 14 13 12 11 10 10 9 9 9 11 12 11 9 7 6 5 5 5 5 5 5 6 6
40 39 39 39 38 37 37 37 36 35 36 38 39 40 40 41 42 44 44 43 43 43 42 41 41 41 40 38 35 33 31 30 30 31 29 27 27 27 28 28 28 28 29 30 28 25 23 22 21 19 19 21 20 20 20 20 19 19 18 19 17 16 15 14 15 16 15 13 12 11 11 11 10 9 9 11 11 9 8 7 6 5 5 5 4 4 4 5
42 41 40 39 38 37 36 36 36 36 37 38 40 41 41 41 42 43 43 44 44 44 43 42 42 41 41 40 37 36 34 32 31 31 29 28 27 28 28 28 28 29 30 30 29 26 24 22 20 19 20 20 19 19 21 21 21 19 19 20 19 18 18 17 17 18 17 15 14 12 12 12 11 10 10 9 10 9 8 7 6 5 5 5 4 4 3 5
43 43 42 40 38 37 35 35 35 36 37 39 41 42 41 41 42 43 43 43 43 43 42 43 42 41 42 41 39 38 37 35 33 32 30 29 28 28 27 27 28 29 30 30 29 27 25 24 22 22 21 19 19 21 21 20 20 20 21 21 21 21 21 20 19 19 19 17 16 15 14 14 12 11 11 10 10 9 9 8 7 5 4 5 4 4 3 4
44 43 42 41 38 36 34 33 35 37 39 41 43 43 42 41 41 42 42 42 42 42 42 43 43 42 42 42 41 39 38 37 35 34 32 30 29 28 28 28 28 29 29 29 28 27 26 25 25 24 23 21 20 19 17 18 21 23 25 25 25 25 24 23 22 20 20 19 17 16 14 14 13 12 11 11 10 9 9 9 8 5 4 5 5 4 3 4
43 41 41 39 36 35 33 33 36 38 40 42 43 43 42 41 40 40 40 40 39 40 41 42 42 42 41 40 40 39 38 38 37 36 34 32 31 30 29 29 28 29 29 27 27 26 25 26 27 25 22 20 18 17 18 22 25 26 26 27 28 28 26 24 24 22 21 20 18 17 16 16 15 13 12 12 10 9 8 8 7 6 6 6 5 4 3 2
42 39 37 36 34 33 32 33 36 39 41 41 41 40 40 39 38 37 37 38 38 37 38 40 40 41 40 39 39 39 38 38 38 37 35 34 33 32 31 30 29 29 28 27 26 25 25 26 25 23 21 21 20 21 24 26 26 25 24 23 25 26 25 23 23 24 23 21 20 21 20 18 17 15 14 13 12 11 9 8 8 7 8 8 7 4 3 3
39 36 35 33 32 31 31 33 35 36 37 36 35 35 36 36 35 35 36 37 37 36 36 38 39 40 40 38 37 38 38 38 38 38 36 35 34 33 33 32 30 29 28 27 26 26 26 24 22 22 25 26 25 25 27 27 26 24 22 21 22 24 25 25 24 25 24 22 23 23 21 20 19 18 16 14 13 12 10 9 9 10 10 10 8 5 4 2
36 34 33 32 31 30 30 31 31 31 30 28 28 29 30 31 32 33 34 36 36 35 35 36 37 38 39 38 37 37 38 37 38 38 37 37 36 35 34 33 32 30 29 28 27 26 25 22 21 24 27 28 28 28 28 28 26 24 23 21 22 25 27 26 25 25 24 24 25 24 23 22 22 21 20 17 15 15 13 11 10 11 12 11 9 7 5 3
34 32 31 30 29 28 28 27 26 24 22 22 23 24 26 27 28 30 32 34 35 35 35 35 35 36 38 38 37 37 38 38 38 38 38 38 37 37 35 34 34 33 32 30 28 26 22 20 22 25 27 28 28 29 29 28 25 22 22 21 22 25 27 27 27 27 26 24 25 25 26 26 24 24 23 21 19 18 16 14 11 11 11 11 9 7 5 3
32 30 28 28 26 25 24 22 20 18 18 20 21 23 24 25 26 28 30 32 33 34 35 35 35 35 36 37 36 36 36 37 38 37 37 37 38 37 36 36 35 35 33 31 29 27 23 22 25 26 26 27 29 30 31 29 25 21 21 22 23 24 25 26 28 29 28 26 25 26 28 28 25 24 24 22 21 20 17 15 12 10 10 9 8 7 6 4
28 25 25 25 23 21 20 17 15 15 17 18 19 19 20 21 24 26 28 30 31 32 33 34 34 34 34 35 35 36 34 34 36 36 36 37 37 37 37 36 35 35 34 33 31 29 27 27 28 27 27 27 28 30 31 29 27 24 23 24 24 24 26 28 30 30 29 27 26 27 28 27 26 25 24 22 21 19 17 16 13 11 9 9 8 7 6 6
24 22 22 23 21 18 16 14 13 14 15 16 15 15 16 17 20 22 24 26 27 29 31 31 32 33 34 34 35 35 34 34 35 35 35 36 36 37 37 36 36 36 35 35 34 31 31 30 29 27 27 27 26 28 29 30 30 27 26 27 28 29 31 32 32 32 30 27 27 27 26 26 26 26 25 23 22 20 18 17 15 12 10 10 9 7 6 7
21 19 20 21 19 15 13 12 11 12 12 13 12 13 14 15 17 19 21 22 23 26 28 28 30 31 32 33 33 34 34 34 34 35 35 35 36 36 36 36 37 37 36 36 35 33 33 32 30 29 29 28 27 27 27 29 29 26 27 31 32 33 35 34 34 34 32 29 27 27 26 25 25 25 26 23 23 22 19 17 15 13 12 12 10 8 7 6
19 17 18 20 19 14 11 9 8 7 8 9 11 12 14 15 16 17 18 19 20 22 24 25 27 28 31 32 32 33 33 32 34 36 36 35 36 36 37 37 38 38 37 36 34 35 35 33 32 31 31 30 28 27 27 28 27 26 30 33 34 36 38 37 36 36 34 30 27 27 27 25 23 24 26 25 24 22 18 15 14 13 13 14 12 8 7 6
17 16 17 20 18 13 8 6 4 3 5 8 9 11 13 14 16 17 18 18 18 19 21 22 24 26 29 31 31 32 32 31 33 35 36 36 36 37 38 38 38 38 37 36 35 35 35 34 33 32 31 30 29 29 30 29 27 28 33 35 35 37 39 39 38 37 36 31 28 28 27 25 23 24 24 20 18 17 16 12 12 14 16 16 12 8 6 6
17 16 16 19 17 11 6 2 2 3 5 6 8 10 12 14 16 17 19 20 20 20 20 20 22 24 26 28 30 31 32 32 33 34 36 37 37 38 38 37 38 38 37 36 36 36 35 34 33 32 31 31 31 31 31 30 29 30 33 36 37 37 39 40 40 38 36 32 29 28 28 26 24 24 21 14 10 11 12 9 9 14 18 18 11 6 6 7
17 16 16 18 15 10 4 1 3 2 3 5 7 9 11 14 16 18 20 23 22 22 23 22 22 23 24 26 29 30 30 31 33 34 36 36 36 38 38 37 37 38 37 36 36 36 35 35 34 34 34 33 33 33 32 31 31 32 33 35 38 38 39 41 41 39 37 35 32 29 28 26 23 21 17 13 11 10 9 8 9 12 17 19 13 6 8 10
17 16 16 17 14 9 4 2 3 3 3 4 7 9 11 14 17 19 22 24 24 25 26 25 24 24 24 25 26 28 28 28 31 34 35 35 36 37 38 38 38 39 38 37 37 36 36 36 35 35 36 35 34 33 33 33 33 34 34 35 37 39 40 41 41 39 38 37 35 31 28 25 22 20 17 15 13 11 9 10 11 14 17 19 15 10 11 13
17 16 16 16 13 8 4 4 4 4 4 4 7 10 12 14 18 21 24 25 25 26 26 26 25 25 24 25 25 27 28 28 30 32 33 34 34 35 36 37 38 38 38 38 38 37 37 36 35 35 37 36 35 35 35 35 34 34 35 36 37 38 40 41 40 39 38 38 39 35 30 25 24 24 22 20 19 17 15 13 12 15 17 18 17 15 14 15
17 17 17 16 13 9 4 4 6 5 5 5 7 10 11 14 18 22 24 24 24 25 25 24 25 25 26 26 25 25 26 27 29 31 31 32 33 33 34 35 36 37 37 37 38 39 38 36 35 37 38 37 36 36 35 36 36 35 35 36 37 37 38 38 38 38 37 40 42 40 35 30 28 27 24 23 24 23 21 18 17 17 19 19 20 18 15 15
17 17 18 17 13 10 6 2 3 4 4 4 6 9 11 13 16 20 23 23 22 22 22 22 22 24 26 25 24 25 25 25 27 29 30 31 31 31 32 33 34 35 36 36 38 39 39 37 37 38 39 38 37 36 36 37 37 37 36 36 38 39 38 37 38 38 38 41 44 43 40 36 32 29 25 24 26 25 24 25 25 24 23 22 21 18 15 14
17 17 18 18 15 11 8 5 2 0 2 3 6 8 10 12 14 16 18 19 19 17 18 20 21 22 25 25 24 25 26 24 25 27 29 30 31 30 30 31 32 34 35 35 36 37 38 38 38 39 39 39 38 37 38 38 38 38 38 38 38 39 39 39 40 40 39 42 44 45 44 42 37 34 31 28 29 28 26 26 27 27 27 25 22 20 18 16
17 18 19 19 17 14 10 8 6 4 4 3 5 6 7 9 12 12 13 14 15 15 16 20 22 24 25 26 26 26 26 26 26 27 29 30 31 31 31 32 32 33 34 34 35 37 38 38 38 39 40 39 39 38 37 38 38 39 40 40 39 37 37 38 39 40 40 42 43 45 45 45 43 41 38 34 33 32 31 29 27 27 27 25 24 24 21 19
18 20 20 19 18 16 13 10 8 6 5 4 3 3 5 8 9 9 10 11 12 14 16 18 20 22 23 26 27 26 26 27 27 28 29 30 31 31 31 32 33 34 34 34 34 36 37 37 37 39 39 39 39 38 36 37 39 40 41 41 40 39 38 37 38 40 40 40 41 43 44 46 46 45 42 39 36 35 33 32 30 28 28 26 24 25 24 22
21 22 21 19 17 17 16 13 11 9 7 6 4 2 4 6 6 8 10 11 11 12 14 14 14 16 17 19 22 23 25 25 25 26 28 28 30 31 31 32 33 34 34 34 34 35 37 38 37 38 38 38 38 38 36 37 39 40 40 40 41 42 42 40 39 39 39 39 39 39 41 45 47 47 45 42 41 38 35 32 31 30 30 28 25 25 25 24
22 22 20 18 16 16 17 16 14 11 9 7 4 2 3 5 6 8 10 12 13 13 13 13 12 12 12 12 13 15 18 20 20 22 23 25 26 27 29 30 31 33 33 33 34 35 36 37 37 38 38 38 38 38 38 38 39 40 40 40 40 42 43 42 41 41 40 39 38 37 39 43 45 45 44 43 41 39 35 32 30 30 30 28 26 25 24 25
21 20 20 19 17 16 17 16 15 13 11 9 5 2 1 4 5 7 10 12 14 15 15 14 14 13 12 11 11 11 13 15 16 17 19 21 22 23 25 26 28 31 32 33 33 34 36 37 37 37 38 39 40 39 39 39 40 40 40 41 41 41 42 42 42 43 43 42 40 38 39 40 41 40 40 40 38 36 34 32 30 29 29 27 26 25 24 25
20 20 20 20 20 18 17 16 15 14 12 10 7 4 2 2 4 6 9 11 12 14 15 16 16 15 15 14 13 12 12 13 14 15 17 18 20 21 22 23 25 26 29 30 31 33 35 36 36 36 38 40 40 39 40 40 40 40 40 41 41 41 41 42 42 43 43 43 42 41 41 40 39 38 37 37 36 36 35 33 32 31 30 29 28 27 26 26
20 19 20 21 20 18 16 15 13 12 11 9 8 5 3 2 1 3 7 9 11 12 13 15 17 17 17 16 14 13 13 14 14 15 15 17 18 20 20 21 22 23 25 27 28 30 34 35 35 36 38 39 39 39 40 40 40 41 41 42 42 41 41 41 43 43 42 42 42 42 43 42 40 38 36 36 36 37 38 37 36 34 33 31 30 30 29 29
20 19 19 19 18 17 16 14 12 10 9 9 8 7 4 3 2 0 3 6 8 9 11 14 16 17 17 17 15 14 14 15 15 15 15 16 17 18 18 19 20 21 22 24 26 27 31 35 37 37 38 39 39 38 40 41 41 40 41 41 42 42 41 41 42 42 42 43 43 43 44 44 42 40 39 38 38 39 40 39 38 36 35 33 31 32 32 31
20 20 19 18 17 17 15 13 11 10 10 9 10 8 6 5 4 3 2 3 4 6 8 10 14 16 16 16 15 14 14 15 17 17 17 17 17 17 18 18 19 21 22 24 25 27 30 34 38 39 40 40 40 39 40 41 42 42 41 42 42 42 42 42 42 42 42 43 43 44 45 45 44 43 42 41 40 41 41 40 39 37 36 34 33 33 33 33
22 22 21 19 18 18 17 15 13 11 10 10 10 8 7 6 6 5 4 4 4 5 6 8 11 13 14 15 15 15 16 17 18 19 20 20 20 19 19 19 20 21 23 24 26 28 30 33 37 41 42 42 41 41 40 41 42 43 43 43 43 43 43 42 42 42 42 43 43 45 46 45 45 45 44 43 42 43 43 42 41 38 37 36 34 33 34 34
22 22 22 20 19 20 19 19 17 15 14 12 11 9 8 8 7 7 6 6 6 7 8 9 10 12 13 15 16 16 16 17 18 19 20 21 21 20 19 19 20 21 22 24 25 27 30 32 35 40 43 44 43 43 42 41 42 43 44 44 44 44 43 43 43 43 43 43 44 45 46 45 45 45 45 45 44 44 44 43 43 40 38 38 37 36 35 36
23 21 20 20 20 20 20 20 19 18 17 16 14 12 11 10 9 8 8 8 9 9 10 11 12 13 13 14 15 16 17 17 18 19 20 20 21 21 20 20 21 21 22 23 24 25 27 30 32 36 41 45 46 45 44 43 43 44 44 44 44 44 43 43 43 43 43 44 44 44 45 46 46 46 47 47 46 46 44 43 42 41 39 40 41 39 38 38
22 21 20 20 20 20 19 19 18 18 17 17 16 15 14 12 10 9 9 9 10 11 12 13 13 14 14 15 16 17 18 19 19 20 20 21 21 22 22 22 22 23 23 24 24 25 26 27 29 32 36 42 47 49 47 46 46 46 45 45 45 44 44 43 43 43 43 44 44 44 45 46 46 46 47 49 50 49 47 44 41 39 41 43 43 42 40 39
21 21 20 20 20 19 18 18 17 17 17 17 17 16 15 14 13 12 11 10 10 11 12 13 14 15 15 16 17 18 19 20 21 22 22 23 23 23 23 23 22 23 23 24 25 26 27 28 29 30 33 36 42 48 51 50 48 48 48 48 48 47 46 45 44 44 43 44 44 46 46 47 46 45 47 51 53 53 51 48 43 41 42 45 45 43 42 41
20 20 20 19 18 18 18 17 17 16 16 17 16 16 16 16 15 14 13 12 11 10 11 12 13 14 16 16 17 18 19 20 22 23 23 24 25 25 25 25 25 25 25 25 26 27 28 29 30 31 33 34 37 42 48 51 52 51 51 51 51 51 50 49 48 46 45 45 46 47 48 48 47 46 47 50 54 56 56 53 49 46 45 47 48 47 45 44
20 19 19 19 19 18 18 17 17 16 16 15 15 15 16 16 16 16 15 15 13 11 10 10 11 13 15 17 18 19 19 21 22 23 24 25 26 26 27 27 27 27 28 28 29 30 30 32 33 33 34 36 37 38 41 45 49 53 55 55 55 55 54 53 52 51 49 48 48 49 50 51 51 49 49 50 52 56 59 58 54 51 49 49 51 51 49 48
Wind_Direction
286 285 285 284 282 281 278 277 276 274 273 272 271 269 267 265 262 260 259 258 256 252 248 248 250 251 249 247 246 245 242 235 228 226 225 225 226 222 219 224 226 222 220 224 225 224 223 218 216 216 215 214 211 214 223 230 234 232 224 192 175 264 281 290 306 341 346 17 40 46 66 154 176 161 157 148 142 142 133 125 120 120 123 113 106 115 118 116
285 284 283 283 282 281 279 277 276 274 273 272 271 270 268 266 263 261 259 257 255 253 249 245 246 248 248 246 244 243 244 241 234 229 227 226 227 223 220 224 226 223 221 222 223 223 223 220 217 218 219 218 215 216 224 231 235 236 229 203 185 250 276 281 289 335 336 13 46 44 51 135 181 162 156 150 143 139 131 127 125 125 125 117 109 114 115 115
289 287 285 284 283 282 280 279 277 275 273 271 270 269 268 267 265 262 259 257 254 253 250 246 244 244 245 245 244 242 242 242 239 234 228 225 227 224 220 223 225 223 222 222 224 225 225 224 221 221 222 221 218 219 227 232 235 238 234 220 218 245 265 274 280 316 337 34 59 53 54 71 150 158 156 146 140 139 133 133 138 137 133 125 118 123 119 116
294 291 288 286 284 282 281 279 278 276 274 272 270 268 267 265 265 263 261 258 255 252 250 246 243 242 243 243 243 242 241 241 240 238 231 226 227 226 221 222 224 223 223 222 223 225 225 225 224 224 224 222 220 221 228 232 234 238 236 229 231 242 254 261 265 270 295 36 67 65 64 70 119 150 151 140 138 140 135 135 141 139 138 132 127 132 128 122
297 295 292 289 285 283 281 279 277 275 274 272 271 269 267 265 263 262 261 259 256 253 250 247 243 241 241 241 241 241 241 240 239 239 236 230 226 226 224 222 223 223 223 222 220 221 219 218 219 220 220 219 219 222 228 232 233 236 236 231 231 236 241 245 251 252 254 34 69 71 73 72 103 142 145 143 143 143 140 137 137 134 136 136 136 141 135 127
298 297 294 292 288 285 281 279 277 275 273 271 270 268 267 265 263 261 259 258 257 254 251 247 243 240 239 239 239 240 240 238 237 237 236 234 229 226 225 222 221 222 223 221 219 218 216 217 217 215 213 211 213 219 225 230 232 235 236 232 230 233 232 233 239 243 246 211 81 75 75 67 89 136 147 153 152 147 146 141 137 135 136 138 142 145 139 133
298 297 295 293 290 286 283 280 277 275 273 270 268 267 265 264 262 260 258 256 255 254 252 249 244 241 238 237 237 239 239 237 235 235 234 235 232 227 225 223 221 222 222 220 218 217 216 216 216 215 213 209 210 215 220 225 229 233 234 231 230 232 231 229 228 226 229 186 101 84 80 70 87 131 155 159 157 155 148 139 137 142 142 141 145 144 139 137
298 297 296 294 292 288 285 281 278 276 273 271 268 266 264 262 260 259 257 255 253 252 251 250 246 242 238 236 236 237 238 236 234 234 233 234 234 230 226 223 222 222 221 219 218 218 216 215 215 216 213 211 212 213 216 220 224 228 232 232 232 234 235 233 226 221 216 174 131 101 91 84 86 128 162 153 153 158 147 137 136 143 146 143 144 143 140 139
297 296 295 294 292 290 287 284 280 276 274 271 268 266 263 260 258 257 256 255 253 250 249 249 247 244 239 235 234 235 237 235 234 234 233 233 234 233 229 224 223 224 221 218 218 217 216 215 215 214 211 213 216 215 217 222 226 229 233 236 238 238 237 235 229 224 217 190 165 137 109 96 81 103 139 142 153 156 145 141 136 141 151 145 144 146 144 140
296 295 294 293 292 290 288 284 281 277 274 270 268 265 263 260 256 254 253 253 251 249 247 246 246 245 241 236 233 234 236 235 234 233 232 232 233 233 231 226 223 224 222 217 214 213 213 213 213 214 215 217 219 218 218 223 229 233 235 238 240 239 236 234 232 225 215 194 175 163 132 114 94 102 119 134 149 146 139 140 138 146 154 146 143 144 143 136
297 296 295 293 291 290 287 284 280 276 273 269 266 264 261 259 256 253 251 250 249 247 246 244 243 243 242 238 233 232 234 235 234 232 230 231 231 231 231 228 225 224 221 216 213 214 215 215 214 216 218 221 221 219 219 223 230 232 233 236 236 235 232 228 229 223 211 194 183 176 150 137 118 110 117 127 135 136 132 135 140 147 147 142 140 140 142 141
298 297 295 293 291 289 286 282 278 274 271 268 264 262 260 258 255 252 249 248 247 245 244 243 241 240 240 238 234 231 233 235 235 234 230 228 229 229 230 229 225 223 220 216 216 216 216 216 215 215 218 219 219 216 218 223 228 228 227 230 226 222 219 215 216 213 207 197 189 183 165 157 141 120 120 127 135 139 134 136 141 144 141 138 138 139 145 150
299 297 295 293 291 289 286 282 278 274 270 267 264 261 259 257 255 252 249 246 245 244 242 241 240 239 238 236 234 230 230 233 234 234 231 227 228 227 227 227 225 222 220 220 220 217 215 214 214 215 217 218 216 213 215 220 224 223 222 223 220 209 206 208 205 199 197 197 192 184 172 169 163 143 133 134 141 147 144 147 150 157 150 142 144 147 150 155
300 298 296 294 292 289 286 283 279 273 269 266 263 260 258 256 253 251 249 246 244 243 241 239 238 238 236 235 233 230 228 229 232 234 231 227 227 227 225 225 224 221 220 223 223 220 217 217 217 217 217 217 216 212 210 213 219 222 220 221 219 207 201 202 195 188 186 189 192 185 176 177 175 165 152 144 146 152 158 160 158 171 167 149 152 158 156 155
302 300 298 295 293 290 286 282 278 272 267 264 261 259 257 255 252 250 249 246 243 241 240 238 236 236 236 234 232 230 227 227 229 233 232 226 224 225 225 223 223 222 221 224 225 222 218 219 219 215 215 216 215 211 205 205 212 217 217 219 219 208 200 198 190 186 186 184 185 183 177 184 185 174 167 160 157 162 168 167 163 179 184 168 165 166 158 150
305 303 301 298 295 291 286 281 276 270 265 262 259 257 256 254 252 250 248 246 243 241 239 238 235 233 234 233 231 229 228 226 226 230 232 228 222 222 223 222 223 223 223 225 225 223 218 215 214 211 211 212 210 209 203 199 204 208 209 212 216 209 198 193 191 188 186 180 174 174 176 184 187 178 175 174 170 174 181 176 170 184 198 190 181 176 161 151
309 307 304 302 298 293 287 281 274 267 263 259 257 255 253 251 250 248 246 244 242 240 238 237 235 232 232 231 230 229 227 226 225 225 228 228 224 221 221 221 221 223 223 224 225 223 218 213 211 209 207 204 203 207 204 201 202 203 202 203 208 211 200 192 194 190 183 176 167 166 174 179 181 179 176 174 175 184 192 182 170 181 204 203 197 196 184 166
312 310 307 305 301 295 289 279 270 264 259 255 253 252 250 248 247 246 245 243 241 239 237 236 234 232 230 230 230 229 228 226 225 225 225 226 224 222 221 220 219 221 223 223 223 222 218 213 212 210 206 202 202 204 201 200 201 200 200 198 200 208 204 193 194 194 185 179 169 162 169 173 171 172 170 168 171 181 191 186 174 177 193 202 209 212 199 174
315 313 309 306 301 295 287 275 265 259 255 252 250 249 247 245 244 243 242 241 239 236 235 235 234 232 230 229 229 229 229 227 226 225 225 225 224 222 222 221 220 220 221 222 222 221 217 214 213 212 208 205 203 195 191 197 201 202 201 201 202 208 212 203 197 196 190 184 173 161 165 171 166 164 164 165 168 170 180 185 181 179 181 191 202 208 211 200
318 315 310 305 299 291 282 271 263 258 255 253 251 248 246 244 241 239 237 237 236 234 233 233 232 231 229 227 227 228 228 227 226 226 225 225 224 223 223 222 221 221 221 221 221 219 217 215 213 210 207 206 201 191 192 199 203 204 202 204 207 210 216 214 204 199 193 183 175 170 171 175 170 166 165 163 162 163 171 181 181 180 181 184 189 197 216 240
320 315 309 303 296 288 280 271 266 262 259 257 253 249 246 243 240 237 235 233 232 231 230 229 229 229 228 226 225 225 225 226 226 225 225 225 225 224 223 223 223 222 221 221 220 217 216 213 208 204 205 205 201 197 200 203 203 202 199 200 204 206 210 214 211 207 196 181 178 181 181 181 177 173 169 164 161 158 160 175 183 185 187 188 191 199 205 221
320 314 307 301 295 288 282 276 272 268 264 260 255 249 244 241 238 235 232 230 228 227 227 227 227 227 226 225 223 222 222 223 223 224 224 224 224 224 223 223 223 223 222 221 220 218 216 211 205 204 205 205 202 203 206 207 205 202 196 192 196 201 205 209 211 213 206 190 186 187 185 185 183 176 171 167 164 159 158 169 184 192 196 198 201 204 197 196
318 311 305 299 294 289 285 281 277 271 265 258 251 245 239 234 231 229 227 227 224 222 222 222 223 224 224 224 223 222 221 221 221 222 223 223 223 224 223 223 223 224 223 222 221 219 215 209 207 207 207 205 203 204 209 210 208 203 195 190 191 198 203 205 208 214 215 203 193 189 187 192 193 186 180 175 174 171 166 168 181 195 200 201 204 205 200 211
315 310 305 301 297 294 289 285 279 268 259 251 246 241 236 231 226 222 222 223 221 219 219 218 220 221 223 223 223 222 222 221 220 221 221 222 223 223 223 223 224 224 224 223 222 219 214 210 210 209 206 206 203 203 209 210 207 200 191 188 190 195 200 204 208 216 221 212 201 195 194 200 205 198 189 185 183 177 169 169 178 193 199 199 202 207 207 212
314 312 311 308 305 301 294 287 276 264 255 249 245 241 236 230 223 217 218 219 217 217 217 216 217 219 220 222 222 221 221 221 220 220 220 221 221 222 223 223 223 225 224 223 222 219 216 214 212 211 208 208 205 204 208 209 205 196 185 185 188 192 198 204 209 215 220 216 207 202 200 204 209 205 197 192 186 177 172 175 179 186 192 189 192 201 205 201
316 316 318 316 314 307 296 286 272 260 253 246 241 235 228 224 219 213 213 215 213 213 213 213 215 215 216 218 221 221 220 220 219 219 219 219 220 220 221 221 222 223 223 223 222 220 220 219 216 214 212 211 208 207 208 209 207 197 183 182 187 191 198 204 208 212 215 216 212 206 203 204 206 206 207 199 186 181 179 178 178 180 181 177 182 193 198 197
318 319 323 323 322 314 300 289 275 263 254 243 231 220 214 212 209 205 206 208 207 208 208 210 211 212 213 214 217 219 219 219 219 218 217 217 218 218 218 219 220 221 221 222 222 222 222 222 219 218 216 214 211 209 209 211 211 198 183 184 189 193 199 205 208 211 214 216 215 210 205 204 203 205 209 201 189 188 184 177 177 179 176 174 179 185 188 191
320 321 327 329 327 321 309 296 286 269 247 231 216 207 202 198 195 192 195 198 198 200 202 204 206 207 210 211 212 214 215 216 217 217 216 215 216 216 216 216 217 219 220 220 221 222 223 222 221 220 219 217 214 212 210 211 210 198 188 190 193 194 200 205 208 210 213 215 217 215 210 207 204 206 210 205 197 193 183 172 175 178 173 171 173 176 183 185
326 324 329 332 331 329 323 303 283 232 206 206 202 198 194 190 186 183 185 186 183 188 194 198 199 201 205 206 207 209 209 211 214 215 216 215 214 215 215 216 216 217 218 218 220 222 223 223 222 222 222 220 218 215 213 210 206 200 194 193 194 196 200 204 206 208 212 215 218 220 218 212 208 211 214 211 205 196 182 172 174 175 171 167 166 172 184 190
333 329 331 335 335 333 333 297 220 184 186 193 194 196 193 188 184 181 181 180 175 175 181 186 190 194 198 200 202 206 207 208 210 213 214 214 213 214 215 216 217 217 216 216 218 221 222 223 222 222 222 220 219 218 216 213 208 205 201 196 195 197 199 203 205 207 209 214 219 220 219 217 214 215 216 210 206 199 191 186 178 176 175 172 170 173 184 192
339 337 337 339 338 333 327 214 189 183 184 194 196 198 196 190 187 183 178 177 174 172 173 178 183 189 194 196 199 202 204 206 207 210 212 213 213 214 215 215 216 216 216 215 217 219 221 222 221 221 220 219 219 219 217 215 212 209 207 202 198 198 200 203 205 207 207 210 219 221 219 218 216 219 220 215 213 205 200 206 199 193 190 187 188 196 195 195
345 346 344 343 341 332 308 225 209 205 197 203 202 202 198 190 187 182 176 176 176 175 177 179 182 186 190 192 196 197 197 201 205 209 212 213 213 214 214 215 215 215 215 215 215 217 218 220 221 221 222 220 219 220 219 217 214 213 212 208 203 200 201 203 205 207 207 208 216 221 220 219 217 220 223 225 228 225 220 221 214 210 206 202 208 220 211 201
352 353 351 349 346 338 298 241 235 232 225 218 209 209 204 191 184 183 181 180 180 178 178 178 179 182 184 185 192 194 194 197 203 207 211 214 214 215 215 215 216 216 216 215 215 215 216 218 219 221 222 220 219 220 220 219 216 216 216 214 211 206 204 205 207 209 208 207 213 219 219 217 216 218 219 220 223 224 224 227 222 215 212 212 219 227 220 208
358 359 359 357 355 352 325 249 242 242 239 227 214 214 209 192 185 187 187 186 184 180 177 177 179 181 182 184 190 194 194 197 201 204 208 211 212 213 213 214 216 217 216 215 215 215 215 215 216 219 221 220 220 221 222 222 220 218 217 216 215 213 211 210 210 211 209 208 212 217 218 216 216 218 220 219 220 216 211 211 212 215 214 213 216 219 220 216
6 5 5 4 2 1 356 310 252 244 236 223 213 211 207 198 193 193 191 188 185 181 179 182 183 184 185 186 192 197 197 198 201 203 205 208 210 210 211 212 214 215 215 214 215 215 215 213 215 218 220 220 220 221 222 224 224 221 218 216 215 213 212 212 212 212 210 208 212 215 217 218 218 221 222 221 222 218 208 202 202 207 211 212 211 210 211 214
12 13 12 12 13 13 7 6 10 357 171 183 199 202 206 207 205 203 199 192 186 181 182 187 188 191 192 190 194 201 201 200 203 205 206 208 209 209 210 212 213 213 213 213 213 214 214 213 215 218 220 220 219 220 221 223 224 223 220 218 217 215 212 210 211 213 211 209 211 215 218 219 220 223 223 220 221 221 216 211 207 207 210 207 200 199 199 200
17 20 20 17 19 23 19 17 26 47 87 133 179 191 203 213 216 216 212 206 198 190 187 191 196 199 198 195 197 202 203 202 203 206 208 209 209 208 208 210 213 213 212 212 212 213 214 212 213 216 218 218 218 218 219 220 222 223 224 221 220 220 217 214 213 214 213 211 211 214 217 219 219 222 224 222 221 221 219 217 215 214 216 209 195 190 189 188
23 25 25 21 23 32 34 33 36 50 77 102 136 178 199 211 220 222 219 219 214 200 194 198 206 209 205 201 201 202 205 205 203 205 208 210 211 210 207 208 211 212 212 211 210 212 213 212 211 214 215 216 217 216 214 216 219 222 225 225 223 222 222 220 218 218 217 213 211 212 214 217 219 222 224 223 224 224 220 216 214 214 217 214 201 190 185 184
31 28 27 25 27 36 43 46 47 52 68 84 96 151 193 203 215 219 216 218 217 209 205 207 214 220 217 214 212 209 211 211 207 206 209 210 212 212 210 209 210 212 213 212 210 210 211 211 210 213 214 214 216 214 210 213 218 219 221 223 223 223 223 221 221 222 222 219 217 213 211 214 217 220 222 223 225 225 222 217 212 211 214 214 205 193 187 186
34 30 27 26 27 36 43 46 49 52 59 73 87 135 189 200 213 220 219 218 217 215 216 215 216 222 226 227 225 221 221 222 218 215 215 216 216 215 215 213 211 211 212 212 211 209 209 209 209 212 214 212 213 213 210 212 217 218 218 220 222 223 223 222 221 222 223 223 221 218 215 214 216 218 219 220 222 222 220 218 213 210 210 208 201 191 186 187
31 27 25 26 28 34 39 40 43 46 50 56 57 53 150 179 199 219 223 222 221 218 219 225 229 229 227 225 224 225 229 233 232 226 223 223 223 222 220 218 216 215 214 213 211 208 207 207 206 209 212 212 211 212 212 213 216 218 218 219 221 222 223 223 222 222 223 223 221 220 220 219 218 218 218 218 218 216 213 211 209 206 203 200 194 188 186 188
26 22 20 21 23 27 31 32 33 32 33 39 42 38 47 142 181 210 220 222 225 225 223 227 236 240 238 233 231 230 232 234 235 232 227 224 223 223 222 220 220 220 218 217 214 209 208 207 204 206 210 212 210 211 213 214 216 218 218 219 221 222 223 223 223 223 223 222 220 221 222 222 222 221 218 216 214 209 204 200 198 198 199 196 193 188 187 189
20 18 18 17 17 20 26 30 30 25 23 30 38 40 29 16 145 203 218 224 230 233 228 225 231 240 244 245 246 245 239 233 231 232 230 226 223 222 222 221 223 223 222 220 217 212 210 207 203 203 208 211 210 209 211 213 215 217 218 219 220 221 222 224 224 224 223 222 221 221 222 221 221 220 215 211 209 204 200 198 197 197 199 198 196 192 190 191
20 19 18 16 14 16 21 26 28 22 16 22 27 27 21 7 9 255 225 230 232 236 234 226 225 232 240 245 248 248 243 236 232 232 232 230 227 222 220 220 222 224 224 222 220 215 211 209 205 202 205 210 209 208 209 211 214 215 217 218 219 220 221 223 223 223 222 223 223 223 222 220 219 217 212 207 206 203 202 201 201 201 200 199 200 198 194 193
26 25 22 18 16 16 16 17 20 18 13 13 15 14 7 358 356 347 299 263 246 240 237 230 224 227 236 241 238 232 230 231 231 230 229 228 228 224 219 215 216 217 218 217 218 215 211 209 206 204 204 208 209 209 210 211 213 215 216 218 219 220 221 222 223 223 222 223 223 223 222 221 219 217 213 209 208 206 205 205 206 204 200 198 200 201 199 195
28 29 27 24 25 24 22 20 18 14 10 6 4 4 355 342 338 332 313 289 270 256 247 237 228 226 232 238 237 228 221 221 224 226 228 228 227 226 222 217 214 213 211 211 213 214 212 209 207 206 205 207 210 211 212 213 215 216 217 218 219 220 221 222 223 223 224 224 223 223 224 222 220 219 217 214 212 210 208 208 207 204 201 199 200 204 204 199
25 27 25 25 28 29 28 29 26 22 18 10 2 358 347 333 324 315 302 285 271 260 251 244 238 232 230 234 238 236 230 225 224 226 228 229 228 227 224 219 215 213 212 212 213 214 214 212 210 209 208 208 210 212 212 213 215 217 218 218 219 220 222 223 223 223 224 225 225 226 227 224 221 220 218 216 213 211 209 209 208 204 202 202 202 205 208 205
19 22 21 21 25 28 27 27 28 27 25 21 15 7 357 346 332 312 294 282 272 263 256 252 247 243 238 236 239 242 242 241 238 235 234 233 232 231 229 224 219 216 216 217 216 217 217 216 215 213 211 210 211 212 213 213 215 218 220 221 221 221 222 223 224 224 223 224 225 228 230 227 223 221 219 215 213 212 209 207 208 208 206 205 205 206 208 207
12 15 16 17 20 24 23 22 24 25 24 23 22 17 10 4 354 335 313 294 280 269 262 257 252 249 245 241 239 241 243 245 245 244 243 243 241 238 235 230 225 221 220 221 221 221 221 220 218 218 217 215 213 214 215 216 216 218 221 223 224 224 223 224 225 225 224 223 224 227 230 229 226 222 219 217 214 213 210 207 206 208 207 207 207 207 207 208
6 8 10 12 16 19 19 17 18 20 20 19 19 18 15 13 8 359 346 325 302 283 269 260 255 252 248 244 241 240 241 243 245 246 247 247 246 245 242 239 234 230 226 225 226 226 226 225 222 220 221 220 217 216 217 218 219 220 222 225 226 226 226 226 225 226 226 224 223 224 227 229 228 224 220 218 216 216 215 212 207 205 206 207 208 209 208 208
3 4 5 7 12 16 16 14 13 14 15 15 15 15 15 15 12 9 4 352 334 310 288 272 260 252 248 246 244 242 241 242 244 246 247 248 248 248 248 246 244 242 238 234 234 233 232 231 228 224 224 223 222 220 220 220 221 223 224 226 227 228 228 229 228 226 225 224 224 224 225 227 228 224 220 218 218 218 219 219 214 209 208 209 210 210 211 210
2 3 3 4 8 11 12 11 9 10 11 10 9 9 12 15 15 13 10 5 357 342 320 298 278 262 252 248 245 244 242 242 242 243 244 247 249 250 250 250 250 250 248 245 243 242 241 240 237 234 231 230 227 224 223 223 223 224 226 228 229 230 230 231 232 230 228 225 224 225 225 226 227 225 220 217 217 218 220 221 219 214 211 211 211 210 212 212